Tracking 19170 objects as of 23-May-2018
HD Live streaming from Space Station
objects crossing your sky now

NOAA 16 DEB

Track NOAA 16 DEB now!
10-day predictions


NORAD ID: 41077
Int'l Code: 2000-055AL
Perigee: 847.6 km
Apogee: 1,016.0 km
Inclination: 99.1 °
Period: 103.5 minutes
Semi major axis: 7302 km
RCS: Unknown
Launch date: September 21, 2000
Source: United States (US)
Launch site: AIR FORCE WESTERN TEST RANGE (AFWTR)

Note: This is SATELLITE DEBRIS
aabbcc
Your satellite tracking list
Your tracking list is empty




NASA's NSSDC Master Catalog

Two Line Element Set (TLE):
1 41077U 00055AL  18143.17505134  .00000004  00000-0  36509-4 0  9993
2 41077  99.1215 213.0335 0115252 313.4057  45.7551 13.91135964126248
Source of the keplerian elements: AFSPC